Погода в Таловском

Россия / Омская область     54°26′47″N   72°17′16″E
темп.,
°C
ветер,
м/с
пор.,
м/с
влажн.,
%
обл.,
%
осадки,
мм/ч
давл.,
гПа
погр.,
м
8 марта, пн
пн800:00+2ююз101886100 2.0 1002882
03:00+1ююз101789100 0.3 1000974
06:000юз91497100 2.3 1001856
09:00−8зсз71191100 1.0 1003496
12:00−11зсз7119098 1.0 1008475
15:00−9з7128447 0.0 1011702
18:00−11з6128536 0.0 1015495
21:00−12зюз51189100 0.0 1016340
9 марта, вт
вт900:00−14юз5138784 0.0 1018298
03:00−13юз6148687 0.0 1017408
06:00−14юз6148971 0.0 1017359
09:00−12ююз6129089 0.0 1017390
12:00−9ююз7128990 0.0 1017536
15:00−6юз8148597 0.0 1015673
18:00−7ююз7158165 0.0 1014579
21:00−8юз61484100 0.0 1015465
10 марта, ср
ср1000:00−9юз51289100 0.0 1015359
03:00−10юз4893100 0.0 1015189
06:00−10зюз2395100 0.0 101448
09:00−10юв2395100 0.0 101273
12:00−7в4795100 0.8 1009319
15:00−7в5993100 2.3 1004505
18:00−7в3695100 3.6 1000435
21:00−9зсз349697 0.4 100080
11 марта, чт
чт1100:00−11зюз5109687 0.5 1002155
03:00−11юз5119685 0.1 1003263
06:00−10зюз8159093 0.4 1005577
09:00−13зюз71490100 0.1 1007511
12:00−12юз7128693 0.1 1009621
15:00−9юз6108267 0.0 1009778
18:00−9ююз379483 0.1 1008346
21:00−12юз4895100 0.2 1008165
12 марта, пт
пт1200:00−15зюз5119494 0.3 1009441
03:00−19юз5129491 0.0 1009382
06:00−19юз5129590 0.1 1010360
09:00−18зюз7139299 0.1 1012595
12:00−17з7118899 0.1 1015695
15:00−17з71187100 0.1 1017957
18:00−19з71289100 0.1 1019642
21:00−22з5129397 0.0 1023348